Vorticity
16 19 4 5 7 8 11 16 11 8 7 9 19 13 20 20 20 23 10 30 -8 16 -1 4 12 12 8 10 1 7 27 33 18 23 17 33 28 -8 35 28 33 13 0 23 20 2 19 17 3 9 10 37 13 17
14 23 4 5 -2 1 -1 4 12 19 12 10 5 24 10 18 17 26 12 13 9 15 6 4 6 17 16 2 13 33 13 -15 -24 -23 -47 -13 -15 37 33 23 -14 21 -30 13 3 17 17 -20 35 -16 18 12 -11 7
10 27 2 5 4 7 5 8 13 17 14 20 11 1 25 14 15 27 11 10 10 8 7 12 8 7 15 22 46 5 5 9 21 17 20 25 8 0 0 2 7 36 -1 -12 19 53 5 -10 -2 -1 8 16 10 -3
11 32 -0 1 0 6 7 10 9 6 17 19 14 18 7 21 12 18 23 69 -3 15 6 5 18 -8 14 34 18 27 6 -25 19 19 16 9 -7 12 33 -7 -26 -9 21 -4 -10 22 50 -7 3 34 19 -0 17 4
16 30 3 -1 3 4 9 9 9 14 11 15 15 17 18 7 18 21 14 9 44 55 -24 18 -2 29 -12 22 -7 20 23 36 -0 2 7 8 10 27 17 29 13 32 20 20 1 -6 18 23 16 15 -10 8 2 13
20 27 2 5 8 2 9 10 5 12 16 16 15 20 14 17 8 14 27 6 17 1 7 5 -7 44 -14 6 14 16 34 9 -5 7 15 18 19 -12 -10 3 13 22 2 4 0 -3 -1 37 -2 10 4 11 33 58
21 21 2 4 8 2 11 6 2 10 14 21 25 16 26 10 14 13 14 18 13 13 4 18 44 -10 17 -6 34 26 34 20 25 12 -1 22 2 -11 -8 -1 12 8 -1 23 0 -4 -6 14 38 1 14 16 10 7
7 13 14 5 8 2 12 4 7 13 16 21 35 32 32 22 -7 23 16 11 25 9 12 20 -6 8 -10 32 -7 -5 24 21 3 7 6 4 21 25 36 8 -2 -10 -8 -6 16 27 25 4 16 41 21 18 0 7
6 3 24 21 7 3 9 3 9 16 23 14 31 28 17 19 20 12 5 -6 15 14 1 -10 -5 13 5 -37 22 21 11 25 47 17 17 45 33 11 26 24 7 7 14 11 8 17 11 6 13 26 8 3 6 8
7 7 23 14 5 1 6 6 9 15 14 22 25 19 26 14 19 32 26 10 21 37 27 27 30 0 18 10 20 34 37 39 14 15 22 42 -22 27 36 32 16 23 23 19 16 12 12 17 18 20 11 19 30 -9
18 5 11 9 5 9 8 5 14 8 12 8 20 -1 11 11 5 20 14 16 13 15 19 12 14 1 1 23 25 49 7 12 13 -2 38 2 -10 19 25 25 26 26 23 23 24 33 26 27 29 20 31 19 27 32
20 31 12 7 13 15 3 5 11 12 10 11 7 23 9 22 12 4 15 14 17 8 -17 -4 5 26 21 32 17 15 17 13 13 13 17 -8 9 20 26 31 31 31 28 25 23 26 29 30 33 26 29 38 29 23
12 19 31 14 10 12 8 11 9 15 17 10 29 8 21 -6 8 13 5 -29 5 18 28 30 27 29 15 17 11 20 13 11 17 11 6 -5 21 15 17 20 20 25 34 38 37 35 33 33 32 31 32 22 18 15
3 3 5 6 10 11 11 10 13 21 16 26 29 6 6 10 -20 13 18 12 8 31 21 23 14 21 10 19 9 18 12 16 10 12 -5 16 12 10 10 11 12 11 11 12 14 16 17 17 15 13 15 13 14 12
10 6 4 0 13 10 9 11 13 12 21 23 26 7 -6 2 4 6 12 11 6 28 19 18 4 10 28 19 15 16 13 9 11 3 16 12 11 11 11 9 9 9 8 8 9 9 10 11 12 14 13 12 12 13
14 9 13 16 13 18 18 15 13 14 25 24 4 3 10 11 8 8 6 9 17 3 31 22 10 9 12 16 18 20 13 11 12 13 12 12 11 10 9 9 7 7 8 8 8 9 9 8 8 8 8 8 9 10
13 14 13 3 6 -4 -9 -1 20 27 30 -7 3 10 7 5 11 10 8 10 15 11 11 33 7 20 10 10 10 16 18 12 12 11 10 10 9 8 7 7 9 11 10 10 9 8 9 9 10 11 10 10 10 9
7 3 3 6 3 -5 -2 35 27 19 14 14 10 9 6 6 10 11 9 12 10 10 27 12 17 21 17 14 8 11 9 10 10 9 9 9 9 8 8 8 8 9 9 8 7 8 8 8 8 8 9 9 9 9
7 11 7 1 -4 11 38 30 25 26 8 8 11 13 8 13 7 10 11 8 6 14 19 18 18 15 15 5 6 7 8 8 9 9 8 8 8 7 7 7 7 7 7 7 7 7 6 6 7 8 9 9 9 9
7 7 3 12 22 40 54 19 38 35 6 15 24 8 12 9 9 10 7 8 8 8 23 21 17 8 6 6 6 7 8 10 9 9 9 9 9 10 10 9 9 9 7 8 9 10 10 10 10 10 10 11 11 11
14 13 17 26 53 -1 33 -21 23 2 7 13 2 10 15 11 13 11 12 15 14 15 20 10 9 8 8 9 10 10 11 11 12 12 10 11 11 10 10 10 10 11 10 10 10 12 13 13 13 12 11 11 11 10
17 7 51 29 3 29 4 4 22 12 30 15 8 6 13 18 18 17 20 18 23 16 14 13 13 12 12 12 11 11 11 11 11 11 10 10 10 11 10 10 11 11 11 10 11 11 11 11 11 11 11 11 11 11
27 49 17 17 14 25 -9 16 20 20 28 9 27 25 11 21 21 20 18 15 14 13 12 12 12 11 11 11 11 11 11 11 10 10 10 10 10 10 11 12 12 12 11 10 9 8 9 9 10 11 12 13 13 13
34 26 2 5 13 11 11 12 15 21 7 18 14 16 9 24 17 9 11 8 9 9 10 10 10 10 10 11 10 10 10 10 10 11 11 13 13 12 11 8 7 8 10 12 15 16 16 15 13 12 11 11 10 10
33 10 10 10 9 9 10 9 8 10 10 11 11 18 12 21 1 -3 6 7 8 9 10 11 10 10 10 11 12 12 12 12 12 12 11 10 9 8 8 10 13 15 15 14 13 11 9 8 8 8 8 8 9 9
16 2 6 8 10 18 11 10 6 10 12 10 -0 14 16 16 14 2 -4 8 11 13 12 10 10 11 12 12 13 13 13 13 12 12 12 12 13 13 13 12 11 12 11 10 9 8 8 9 10 11 11 12 13 13
10 7 4 5 7 10 14 13 14 17 15 12 1 21 16 14 15 -17 9 15 12 9 10 11 10 11 10 10 10 10 9 10 11 10 11 11 11 11 10 10 10 9 9 9 10 12 13 12 12 11 10 11 11 11
5 6 9 4 7 12 16 16 19 11 8 1 13 10 21 -1 1 15 10 11 9 11 15 16 15 15 15 15 15 15 14 14 14 14 14 14 13 13 14 13 14 13 13 12 12 12 13 13 15 14 13 14 15 16
8 9 12 8 11 18 11 10 8 7 17 17 11 18 14 13 12 8 11 14 17 16 16 15 15 16 15 15 15 15 15 15 15 15 14 14 14 15 14 14 14 13 14 14 14 15 14 13 14 15 15 14 14 14
10 10 11 16 17 13 11 15 11 13 23 15 15 14 12 13 11 10 11 11 11 11 12 11 12 12 11 11 11 12 11 12 11 12 12 12 12 13 13 13 13 13 13 12 12 12 12 13 12 11 11 12 12 12
11 12 15 13 14 13 12 11 16 25 15 17 15 10 11 8 8 5 2 4 11 17 16 13 12 11 11 11 11 11 10 9 9 11 12 12 11 11 11 11 11 11 11 11 11 10 9 10 11 11 11 11 10 9
12 10 10 10 13 10 9 12 29 11 22 18 9 12 7 2 -6 -10 -7 -1 10 23 17 18 17 16 14 15 14 14 14 15 15 14 14 13 13 12 11 11 11 11 11 10 10 10 10 10 10 9 10 10 11 12
12 10 9 10 11 13 9 14 15 14 20 23 10 10 12 6 -5 -10 -5 4 22 18 17 16 17 16 16 17 18 17 17 16 15 15 14 14 14 14 14 14 15 14 13 12 12 12 12 12 12 11 11 11 11 11
Height
3046 3038 3033 3027 3021 3014 3006 2998 2989 2980 2971 2963 2954 2947 2939 2935 2931 2930 2931 2927 2930 2928 2928 2928 2929 2927 2927 2927 2925 2924 2922 2921 2918 2917 2917 2917 2909 2904 2900 2896 2894 2897 2905 2907 2913 2913 2913 2909 2913 2919 2919 2920 2921 2921
3042 3036 3031 3025 3019 3012 3004 2994 2986 2977 2969 2961 2953 2945 2939 2933 2929 2927 2926 2926 2926 2924 2922 2921 2921 2922 2922 2923 2920 2918 2918 2919 2919 2916 2912 2910 2909 2906 2902 2899 2893 2897 2901 2900 2903 2900 2904 2905 2908 2911 2914 2916 2917 2918
3037 3031 3026 3020 3016 3008 3000 2994 2983 2975 2965 2956 2949 2944 2937 2931 2927 2923 2921 2921 2921 2919 2915 2914 2915 2918 2914 2915 2914 2911 2911 2913 2911 2913 2909 2908 2906 2905 2902 2899 2897 2896 2890 2890 2891 2893 2898 2902 2904 2907 2908 2909 2909 2912
3033 3028 3023 3018 3012 3005 2997 2988 2980 2971 2962 2953 2946 2940 2934 2928 2924 2920 2915 2908 2914 2914 2912 2908 2908 2908 2908 2907 2906 2905 2905 2906 2906 2906 2905 2902 2902 2902 2896 2895 2894 2895 2895 2892 2887 2889 2891 2893 2898 2900 2900 2901 2904 2905
3027 3022 3018 3015 3010 3002 2994 2984 2976 2967 2958 2948 2942 2936 2930 2925 2920 2916 2914 2911 2909 2909 2907 2904 2902 2904 2902 2900 2900 2898 2897 2898 2899 2900 2898 2897 2896 2897 2893 2891 2881 2891 2889 2887 2880 2889 2888 2886 2890 2893 2894 2895 2895 2894
3025 3019 3016 3009 3006 2998 2989 2980 2972 2964 2954 2945 2937 2932 2926 2921 2917 2912 2910 2909 2907 2907 2905 2899 2896 2895 2894 2895 2894 2893 2891 2891 2892 2891 2889 2887 2889 2892 2887 2885 2884 2883 2881 2881 2879 2880 2880 2879 2881 2883 2886 2886 2885 2884
3023 3017 3013 3008 3003 2996 2987 2977 2968 2959 2950 2940 2932 2927 2922 2918 2915 2912 2910 2908 2907 2905 2903 2897 2890 2889 2891 2889 2888 2886 2885 2884 2884 2883 2879 2880 2883 2884 2879 2874 2873 2873 2873 2876 2874 2871 2871 2873 2872 2875 2877 2878 2878 2879
3021 3016 3012 3007 3001 2994 2984 2975 2965 2956 2945 2935 2927 2922 2917 2914 2913 2911 2908 2906 2904 2904 2902 2897 2890 2888 2886 2884 2883 2882 2879 2878 2874 2873 2872 2873 2875 2874 2872 2866 2862 2865 2865 2867 2866 2864 2863 2864 2864 2865 2867 2869 2870 2872
3018 3012 3007 3003 2999 2993 2983 2973 2962 2955 2945 2934 2927 2922 2918 2914 2910 2909 2907 2905 2904 2905 2900 2896 2892 2888 2884 2881 2878 2874 2871 2866 2864 2861 2863 2867 2862 2861 2858 2855 2853 2852 2852 2852 2857 2856 2856 2856 2857 2857 2858 2861 2862 2863
3016 3010 3004 2998 2994 2990 2982 2971 2961 2954 2945 2937 2931 2922 2917 2914 2909 2907 2905 2903 2901 2901 2896 2893 2890 2887 2885 2881 2875 2873 2867 2863 2860 2857 2857 2855 2859 2860 2853 2849 2845 2845 2846 2847 2846 2849 2848 2847 2849 2850 2850 2851 2854 2855
3012 3007 3002 2995 2989 2986 2980 2970 2961 2954 2947 2939 2931 2926 2922 2915 2911 2907 2906 2904 2902 2900 2895 2892 2889 2884 2881 2877 2873 2870 2866 2863 2860 2859 2857 2859 2860 2856 2852 2847 2843 2841 2840 2839 2839 2838 2838 2839 2840 2841 2843 2843 2845 2848
3008 3003 2997 2991 2986 2982 2976 2968 2961 2954 2947 2940 2934 2928 2923 2917 2914 2912 2909 2906 2903 2899 2894 2889 2886 2881 2877 2873 2871 2869 2866 2865 2863 2862 2861 2865 2865 2858 2853 2849 2843 2839 2836 2835 2833 2833 2833 2834 2834 2836 2838 2842 2845 2848
3007 2999 2993 2989 2983 2978 2972 2966 2959 2952 2946 2940 2935 2929 2925 2924 2921 2916 2913 2907 2901 2896 2891 2885 2882 2879 2876 2875 2873 2871 2868 2867 2867 2867 2872 2873 2868 2862 2857 2854 2846 2840 2838 2837 2836 2835 2834 2834 2834 2837 2841 2845 2849 2853
3008 3000 2993 2986 2981 2975 2969 2963 2957 2951 2944 2940 2935 2931 2929 2927 2924 2920 2915 2909 2903 2895 2890 2886 2882 2880 2879 2876 2873 2872 2872 2871 2873 2877 2878 2875 2870 2865 2862 2859 2855 2850 2848 2845 2843 2844 2843 2843 2844 2845 2849 2852 2857 2859
3003 2997 2992 2984 2978 2972 2966 2960 2954 2949 2944 2940 2937 2933 2931 2928 2924 2919 2914 2908 2903 2897 2891 2887 2884 2881 2879 2877 2875 2875 2875 2878 2882 2883 2880 2877 2874 2870 2868 2864 2862 2859 2857 2856 2855 2855 2854 2854 2854 2855 2858 2860 2863 2864
2999 2994 2988 2981 2975 2969 2961 2955 2950 2946 2941 2939 2935 2933 2929 2926 2923 2918 2913 2908 2903 2898 2892 2889 2886 2884 2882 2880 2879 2879 2882 2885 2886 2884 2882 2880 2878 2876 2873 2871 2868 2867 2865 2863 2862 2862 2861 2861 2862 2863 2863 2864 2864 2865
2993 2989 2985 2978 2971 2965 2958 2952 2948 2942 2938 2936 2933 2930 2927 2924 2921 2916 2912 2908 2904 2900 2895 2891 2889 2887 2887 2885 2885 2886 2888 2888 2887 2886 2884 2883 2882 2880 2878 2876 2874 2873 2872 2870 2868 2867 2866 2865 2865 2865 2865 2865 2865 2866
2988 2984 2980 2973 2965 2959 2953 2948 2942 2938 2933 2931 2930 2927 2924 2922 2919 2916 2912 2908 2905 2900 2896 2894 2892 2891 2890 2891 2891 2891 2890 2889 2888 2887 2886 2885 2884 2882 2881 2879 2878 2876 2875 2873 2872 2871 2870 2869 2868 2868 2868 2868 2868 2868
2984 2979 2974 2967 2959 2952 2943 2938 2936 2933 2931 2929 2927 2925 2922 2920 2917 2914 2911 2908 2905 2901 2899 2895 2894 2893 2893 2893 2893 2892 2891 2890 2889 2888 2887 2885 2884 2883 2882 2880 2879 2878 2876 2874 2873 2872 2872 2871 2870 2870 2869 2869 2869 2868
2980 2975 2968 2961 2953 2944 2939 2937 2934 2931 2929 2928 2924 2922 2920 2918 2916 2913 2910 2907 2904 2902 2900 2897 2896 2895 2895 2894 2894 2893 2891 2890 2889 2888 2887 2886 2885 2884 2882 2881 2879 2878 2876 2875 2874 2873 2873 2871 2870 2870 2869 2868 2867 2867
2974 2969 2961 2955 2947 2943 2940 2938 2936 2933 2929 2926 2924 2921 2918 2916 2914 2911 2908 2906 2904 2901 2899 2898 2898 2897 2896 2895 2894 2893 2892 2890 2889 2888 2886 2885 2884 2882 2881 2880 2879 2877 2876 2875 2874 2873 2872 2871 2870 2869 2868 2867 2866 2865
2966 2961 2955 2948 2945 2942 2939 2937 2935 2932 2928 2924 2921 2918 2916 2914 2911 2908 2906 2904 2902 2901 2900 2899 2898 2897 2896 2895 2893 2892 2890 2889 2888 2887 2885 2884 2882 2881 2879 2878 2876 2875 2874 2873 2872 2871 2870 2869 2868 2867 2866 2865 2864 2863
2961 2956 2952 2948 2945 2942 2942 2936 2933 2929 2926 2922 2919 2916 2915 2913 2910 2908 2906 2905 2903 2902 2901 2899 2898 2896 2895 2893 2892 2890 2889 2887 2886 2884 2883 2881 2880 2878 2877 2876 2875 2874 2872 2871 2870 2868 2867 2866 2865 2863 2862 2861 2860 2859
2956 2954 2951 2947 2945 2943 2940 2936 2933 2929 2926 2922 2919 2917 2915 2913 2912 2910 2908 2907 2905 2903 2902 2900 2898 2896 2894 2892 2890 2888 2886 2885 2883 2882 2880 2879 2877 2876 2874 2873 2872 2871 2869 2868 2866 2865 2864 2862 2861 2860 2859 2857 2856 2855
2958 2954 2952 2949 2946 2944 2940 2937 2934 2931 2927 2924 2922 2919 2917 2915 2913 2912 2910 2908 2906 2904 2902 2900 2897 2895 2893 2891 2889 2887 2884 2882 2880 2879 2877 2875 2874 2872 2871 2869 2868 2867 2865 2864 2863 2862 2861 2859 2858 2857 2856 2854 2853 2851
2955 2953 2952 2949 2946 2943 2939 2937 2934 2931 2928 2925 2923 2920 2917 2915 2914 2912 2910 2908 2906 2903 2901 2898 2896 2893 2891 2889 2886 2884 2882 2880 2878 2876 2874 2872 2870 2868 2867 2865 2864 2863 2862 2861 2859 2858 2857 2855 2853 2852 2850 2849 2847 2846
2955 2952 2950 2948 2946 2943 2939 2936 2933 2930 2928 2925 2923 2920 2918 2915 2913 2912 2909 2906 2904 2901 2899 2896 2893 2891 2888 2885 2883 2880 2878 2876 2874 2872 2870 2868 2866 2864 2862 2861 2859 2858 2857 2855 2854 2853 2851 2849 2848 2846 2845 2843 2842 2841
2954 2951 2949 2947 2944 2941 2937 2934 2931 2929 2927 2925 2922 2919 2917 2916 2914 2911 2908 2905 2902 2899 2896 2893 2890 2887 2884 2881 2879 2876 2874 2871 2869 2867 2865 2863 2861 2859 2857 2856 2854 2853 2851 2850 2849 2848 2846 2844 2843 2842 2840 2839 2837 2836
2952 2950 2948 2944 2941 2937 2934 2932 2930 2928 2925 2922 2920 2917 2916 2914 2912 2909 2906 2903 2899 2896 2893 2889 2886 2883 2880 2877 2874 2871 2869 2866 2864 2862 2859 2857 2855 2854 2852 2850 2849 2847 2846 2845 2843 2842 2841 2839 2837 2837 2835 2834 2833 2831
2950 2947 2945 2942 2938 2935 2933 2930 2927 2924 2921 2919 2917 2915 2914 2912 2910 2907 2904 2900 2897 2894 2890 2887 2883 2880 2876 2873 2870 2867 2864 2862 2859 2857 2854 2852 2850 2848 2846 2845 2843 2842 2840 2839 2838 2836 2835 2834 2832 2831 2830 2829 2828 2827
2948 2946 2943 2939 2936 2933 2930 2927 2924 2920 2918 2916 2915 2914 2912 2910 2908 2905 2902 2899 2895 2891 2887 2882 2878 2874 2870 2867 2864 2862 2859 2855 2853 2850 2848 2846 2843 2841 2840 2838 2836 2835 2834 2832 2831 2830 2829 2827 2827 2826 2825 2824 2823 2822
2947 2944 2941 2937 2935 2932 2929 2925 2921 2918 2916 2914 2913 2912 2910 2908 2905 2903 2899 2895 2890 2886 2881 2876 2872 2869 2864 2861 2857 2853 2850 2848 2845 2842 2839 2837 2835 2833 2832 2830 2828 2827 2826 2825 2824 2823 2822 2820 2819 2818 2818 2817 2816 2815
2945 2942 2939 2936 2933 2930 2927 2923 2919 2916 2914 2912 2911 2910 2907 2905 2902 2899 2895 2890 2885 2880 2875 2870 2866 2861 2857 2853 2850 2846 2843 2840 2837 2834 2831 2829 2827 2825 2823 2821 2820 2818 2817 2815 2814 2814 2813 2812 2812 2811 2810 2810 2809 2808